Regional Weather Roundup
Issued by NWS Northern Indiana

Home | Current Version | Previous Version | Graphics & Text | Print | Product List | Glossary On
Versions: 1 2 3 4 5 6 7 8 9 10 11 12 13 14 15 16 17 18 19 20 21 22 23 24 25 26 27 28 29 30 31 32 33 34 35 36 37 38 39 40 41 42 43 44 45 46 47 48 49 50
000
ASUS43 KIWX 270210
RWRIWX

KIWX WEATHER ROUNDUP
NATIONAL WEATHER SERVICE NORTHERN INDIANA
900 PM EST WED NOV 26 2014

NOTE: "FAIR" INDICATES FEW OR NO CLOUDS BELOW 12,000 FEET WITH NO
SIGNIFICANT WEATHER AND/OR OBSTRUCTIONS TO VISIBILITY.

* THESE STATIONS ARE NOT UNDER NWS QUALITY CONTROL. THEY ALSO MAY NOT
  REPORT WEATHER SUCH AS PRECIPITATION OR FOG.

INZ001>027-270300-
NORTHERN INDIANA

CITY           SKY/WX    TMP DP  RH WIND       PRES   REMARKS
GARY*          CLOUDY    30  21  69 CALM      30.15R
VALPARAISO     PTCLDY    24  18  77 CALM      30.13S
MICHIGAN CITY* MOCLDY    25  21  86 CALM      30.14S
LAPORTE*       PTCLDY    26  20  78 CALM      30.13R
KNOX*          CLOUDY    28  20  74 NE5       30.12S WCI  22
SOUTH BEND     CLOUDY    28  20  71 N3        30.13R
ELKHART*       CLOUDY    28  19  69 CALM      30.12S
GOSHEN         CLOUDY    28  20  71 N6        30.10S WCI  22
MONTICELLO*    CLOUDY    27  21  77 NE6       30.11S WCI  21
LOGANSPORT*    CLOUDY    28  21  74 NE5       30.11S WCI  23
ROCHESTER*     CLOUDY    30  23  74 N6        30.11S WCI  24
WARSAW*        CLOUDY    28  21  74 NE3       30.10S
ANGOLA*        CLOUDY    27  21  80 N3        30.08S
FORT WAYNE     CLOUDY    29  22  75 CALM      30.09S
HUNTINGTON*    CLOUDY    28  22  80 CALM      30.09S
PERU/GRISSOM   CLOUDY    28  24  88 N5        30.09S WCI  22
MARION*          N/A     28  21  75 N6        30.09S WCI  21

$$
INZ028>050-270300-
CENTRAL INDIANA

CITY           SKY/WX    TMP DP  RH WIND       PRES   REMARKS
LAFAYETTE      MOCLDY    25  20  81 NE5       30.11R WCI  19
KOKOMO*        CLOUDY    28  19  69 NE6       30.09S WCI  22
MUNCIE*        CLOUDY    28  21  75 NE6       30.08R WCI  22
INDIANAPOLIS   MOCLDY    28  22  78 NE10      30.06S WCI  19

$$
MIZ043>046-050>051-056>058-064>065-071>073-077>080-270300-
SOUTHWEST LOWER MICHIGAN

CITY           SKY/WX    TMP DP  RH WIND       PRES   REMARKS
BATTLE CREEK   CLOUDY    29  22  75 N3        30.10R
BENTON HARBOR  CLOUDY    25  22  88 CALM      30.13R
COLDWATER*     CLOUDY    29  26  86 N5        30.09S WCI  24
HILLSDALE*     CLOUDY    29  26  87 N3        30.06S
HOLLAND        CLOUDY    31  22  69 CALM      30.13S
GRAND RAPIDS   CLOUDY    29  21  72 N5        30.12R WCI  24
KALAMAZOO      CLOUDY    29  21  72 N3        30.11R
STURGIS*       CLOUDY    27  23  86 N5        30.09F WCI  21
THREE RIVERS*  CLOUDY    29  23  76 CALM      30.11S

$$
OHZ001>008-015>018-024>025-270300-
NORTHWEST OHIO

CITY           SKY/WX    TMP DP  RH WIND       PRES   REMARKS
WAUSEON*       CLOUDY    30  27  86 NW3       30.07F
DEFIANCE       CLOUDY    31  25  78 N5        30.08F WCI  26
FINDLAY        CLOUDY    32  26  78 N8        30.05S WCI  25
TOLEDO EXPRESS CLOUDY    30  25  81 N5        30.07F WCI  25
TOLEDO METCALF CLOUDY    33  25  72 N7        30.08S WCI  27
LIMA           CLOUDY    31  25  78 N5        30.06R WCI  26

$$
AND FOR LAKE MICHIGAN COASTAL AND OPEN LAKE BUOY OBSERVATIONS

STATION/POSITION TEMP    WIND        PRES    VSBY  WAVE
                 AIR SEA DIR/SP/G                  HT/PER
                 (F)     (DEG/KT/KT) (MB)    (MI)  (FT/S)
CALUMET HARBOR    31      30/  4/  7 1019.3S
MICHIGAN CITY     27     110/  4/  5   N/A
SAINT JOSEPH      28        CALM     1021.3R
SOUTH LAKE BUOY   33 42   20/  2/  4 1021.1R         1

$$
&&



USA.gov is the U.S. government's official web portal to all federal, state and local government web resources and services.